This is the latest recevied weather packets stored in our database for station/object DK6GC-10. If no packets are shown the sender has not sent any weather packets the latest 10 day(s).
| Time | Temp. | Humidity | Pressure | Rain* | Wind** | Luminosity | Snow |
|---|---|---|---|---|---|---|---|
| 1788074120 | 20.56° C | 74% | 1017.6 hPa | - | - | - | - |
| 1788073220 | 20° C | 77% | 1017.6 hPa | - | - | - | - |
| 1788072320 | 20° C | 79% | 1017.4 hPa | - | - | - | - |
| 1788071420 | 19.44° C | 80% | 1017.3 hPa | - | - | - | - |
| 1788070518 | 20° C | 77% | 1017.1 hPa | - | - | - | - |
| 1788069623 | 20° C | 75% | 1017.1 hPa | - | - | - | - |
| 1788068722 | 19.44° C | 78% | 1017 hPa | - | - | - | - |
| 1788067822 | 19.44° C | 77% | 1017 hPa | - | - | - | - |
| 1788066922 | 19.44° C | 76% | 1017 hPa | - | - | - | - |
| 1788066022 | 18.89° C | 75% | 1016.9 hPa | - | - | - | - |
| 1788065122 | 19.44° C | 73% | 1016.8 hPa | - | - | - | - |
| 1788064221 | 19.44° C | 73% | 1016.8 hPa | - | - | - | - |
| 1788063321 | 19.44° C | 73% | 1016.7 hPa | - | - | - | - |
| 1788062421 | 19.44° C | 72% | 1016.7 hPa | - | - | - | - |
| 1788061521 | 19.44° C | 71% | 1016.7 hPa | - | - | - | - |
| 1788060621 | 19.44° C | 72% | 1016.7 hPa | - | - | - | - |
| 1788059721 | 19.44° C | 71% | 1016.7 hPa | - | - | - | - |
| 1788058820 | 19.44° C | 70% | 1016.8 hPa | - | - | - | - |
| 1788057920 | 20° C | 70% | 1016.7 hPa | - | - | - | - |
| 1788057020 | 20° C | 70% | 1016.6 hPa | - | - | - | - |
| 1788056120 | 20° C | 70% | 1016.6 hPa | - | - | - | - |
| 1788055220 | 20° C | 71% | 1016.6 hPa | - | - | - | - |
| 1788054319 | 20.56° C | 69% | 1016.7 hPa | - | - | - | - |
| 1788053419 | 20° C | 70% | 1016.7 hPa | - | - | - | - |
| 1788052519 | 20° C | 69% | 1016.8 hPa | - | - | - | - |
* Rain since midnight (hover to see other rain measurements)
** Current wind speed in m/s (hover to see current wind gust speed)